Showing default

COSMOS 1692, 16140

Orbit data source: Space-Track

COSMOS 1692, 16140 is a payload satellite owned by GUKOS (CIS) in LEO that was launched on Wed, 09 Oct 1985 UTC via a TSIKLON-3 launch vehicle from the Plesetsk Missile And Space Complex (PKMTR). Payload-class satellites include a variety of spacecraft equipped with specific instruments for various scientific and technological missions. These include communications satellites like Starlink; space stations such as the ISS; scientific satellites like the Hubble; Earth observation satellites from companies like Planet Labs, Umbra, and HawkEye 360; GPS; miniature CubeSats for education and research; and military/defense satellites.

Loading next visibility...
Identifier
16140, 1985-094C
Orbit
LEO
Country
Flag of CISCIS
Related business
Manufacturer
NPO PM
Mission
Spacecraft
Bus & Motor
STRELA-3, Unknown motor
Mass
225 kg wet, 225 kg dry
Launch date (UTC)
1985-10-09 (40 years ago)
Launch vehicle
TSIKLON-3
Launch site
Plesetsk Missile And Space Complex (PKMTR)
Object type
Payload
Rocket body
Debris
Shape & HBR
Unknown
Radar Cross Section
Medium (>0.1 m² and <1 m²)

Expand to show TLE details & history
Last TLE update: 10 hours ago

TLE from 10 hours ago
0 COSMOS 1692
1 16140U 85094C   25298.71848644  .00000025  00000-0  75797-4 0  9992
2 16140  82.6060  20.3464 0017680 177.3037 337.2806 12.64913882848738
Epoch: 2025-10-25T17:14Z
TLE epoch observation values (Epoch: 2025-10-25T17:14:37.228Z)
Latitude
25.29485°
Longitude
-96.15234°
Altitude
1,392.962 km
Speed
7.171 km/s
True Right ascension
13h 07m 23s
True Declination
25° 10' 23"
Sunlit
Object was in daylight at epoch
Visualization orbit readout
Latitude
Unknown
Longitude
Unknown
Altitude
Unknown
Speed
Unknown
Apparent Right ascension
Unknown
Apparent Declination
Unknown
Sunlit
N/A
Visualization observer readout
Local Sidereal Time
22:14:00
Azimuth
Unknown
Elevation
Unknown
Doppler factor
Unknown
Orbital elements
Apogee altitude
1,413.796 km
Perigee altitude
1,386.292 km
Semi-major axis
7,778.181 km
Eccentricity
0.00177
Inclination
82.606°
RAAN
20.3464°
Arg. of periapsis
177.3037°
True anomaly
337.20219°
Mean anomaly
337.2806°
Eccentric anomaly
337.24141°
Mean motion
3.16392 °/min
Orbital period
113.78 mins
BSTAR
0.000075797
Loading maneuver chart data...
Computing Atmospheric mass density...
Loading historical data...
Loading historical data...
Loading historical data...
Loading historical data...
Loading historical data...
Loading historical data...
Loading historical data...

Documentation

Showing up to 5 results
|